When you browse on this site, cookies collect data to enhance your experience and personalize the content and advertising you see.
Visit our Privacy Policy to learn more. By continuing to use the site, you agree to this use of cookies and data.
  • In Österreich
  • Länderverzeichnis
  • Für 7 Tage
  • Wassertemperatur
  • Wetterkarte
  • News
  • Widgets
  • user-avatar
    Anmelden

    Stündliche Wetter Wien

    Heute, 23 Oktober, Mittwoch

    Zeit Temperatur Niederschläge Wind Luftdruck Luftfeuchtigkeit
    00:00 +14°C° 0 mm 0 m/S 747 mmHg 86%
    01:00 +13°C° 0 mm 0 m/S 747 mmHg 88%
    02:00 +13°C° 0 mm 0 m/S 747 mmHg 89%
    03:00 +13°C° 0 mm 0 m/S 747 mmHg 90%
    04:00 +12°C° 0 mm 0 m/S 747 mmHg 91%
    05:00 +13°C° 0 mm 1 m/S 746 mmHg 92%
    06:00 +13°C° 0 mm 1 m/S 746 mmHg 93%
    07:00 +13°C° 0 mm 1 m/S 746 mmHg 95%
    08:00 +15°C° 0 mm 2 m/S 746 mmHg 88%
    09:00 +16°C° 0 mm 2 m/S 746 mmHg 82%
    10:00 +18°C° 0 mm 3 m/S 746 mmHg 75%
    11:00 +20°C° 0 mm 4 m/S 745 mmHg 66%
    12:00 +22°C° 0 mm 4 m/S 745 mmHg 57%
    13:00 +25°C° 0 mm 5 m/S 745 mmHg 48%
    14:00 +23°C° 0 mm 5 m/S 744 mmHg 49%
    15:00 +23°C° 0 mm 4 m/S 744 mmHg 51%
    16:00 +22°C° 0 mm 4 m/S 743 mmHg 53%
    17:00 +21°C° 0 mm 4 m/S 743 mmHg 57%
    18:00 +20°C° 0 mm 4 m/S 743 mmHg 61%
    19:00 +18°C° 0 mm 4 m/S 743 mmHg 66%
    20:00 +18°C° 0 mm 4 m/S 743 mmHg 68%
    21:00 +17°C° 0 mm 4 m/S 743 mmHg 70%
    22:00 +17°C° 0 mm 4 m/S 743 mmHg 71%
    23:00 +17°C° 0 mm 4 m/S 742 mmHg 73%

    Morgen, 24 Oktober, Donnerstag

    Zeit Temperatur Niederschläge Wind Luftdruck Luftfeuchtigkeit
    00:00 +15°C° 0 mm 4 m/S 742 mmHg 75%
    01:00 +16°C° 0 mm 3 m/S 742 mmHg 76%
    02:00 +14°C° 0 mm 4 m/S 741 mmHg 77%
    03:00 +14°C° 0 mm 4 m/S 741 mmHg 77%
    04:00 +13°C° 0 mm 4 m/S 741 mmHg 78%
    05:00 +13°C° 0 mm 4 m/S 740 mmHg 78%
    06:00 +13°C° 0 mm 4 m/S 740 mmHg 78%
    07:00 +13°C° 0 mm 4 m/S 740 mmHg 79%
    08:00 +15°C° 0 mm 4 m/S 740 mmHg 70%
    09:00 +18°C° 0 mm 4 m/S 740 mmHg 62%
    10:00 +20°C° 0 mm 4 m/S 740 mmHg 54%
    11:00 +21°C° 0 mm 4 m/S 740 mmHg 49%
    12:00 +22°C° 0 mm 4 m/S 740 mmHg 44%
    13:00 +24°C° 0 mm 3 m/S 740 mmHg 40%
    14:00 +22°C° 0 mm 3 m/S 740 mmHg 43%
    15:00 +23°C° 0 mm 2 m/S 740 mmHg 46%
    16:00 +22°C° 0 mm 1 m/S 740 mmHg 49%
    17:00 +21°C° 0 mm 1 m/S 740 mmHg 53%
    18:00 +19°C° 0 mm 1 m/S 740 mmHg 56%
    19:00 +18°C° 0 mm 1 m/S 740 mmHg 60%
    20:00 +16°C° 0 mm 1 m/S 741 mmHg 63%
    21:00 +16°C° 0 mm 1 m/S 741 mmHg 66%
    22:00 +15°C° 0 mm 1 m/S 742 mmHg 68%
    23:00 +15°C° 0 mm 1 m/S 742 mmHg 71%

    übermorgen, 25 Oktober, Freitag

    Zeit Temperatur Niederschläge Wind Luftdruck Luftfeuchtigkeit
    00:00 +14°C° 0 mm 1 m/S 743 mmHg 73%
    01:00 +14°C° 0 mm 2 m/S 743 mmHg 75%
    02:00 +14°C° 0 mm 2 m/S 743 mmHg 77%
    03:00 +14°C° 0 mm 2 m/S 744 mmHg 80%
    04:00 +12°C° 0 mm 3 m/S 744 mmHg 82%
    05:00 +12°C° 0 mm 3 m/S 744 mmHg 83%
    06:00 +12°C° 0 mm 3 m/S 745 mmHg 84%
    07:00 +12°C° 0 mm 3 m/S 746 mmHg 85%
    08:00 +14°C° 0 mm 4 m/S 746 mmHg 78%
    09:00 +17°C° 0 mm 4 m/S 746 mmHg 70%
    10:00 +17°C° 0 mm 5 m/S 747 mmHg 62%
    11:00 +19°C° 0 mm 5 m/S 747 mmHg 59%
    12:00 +20°C° 0 mm 5 m/S 747 mmHg 55%
    13:00 +21°C° 0 mm 4 m/S 747 mmHg 52%
    14:00 +20°C° 0 mm 4 m/S 747 mmHg 55%
    15:00 +20°C° 0 mm 3 m/S 747 mmHg 57%
    16:00 +19°C° 0 mm 2 m/S 747 mmHg 60%
    17:00 +18°C° 0 mm 2 m/S 747 mmHg 66%
    18:00 +17°C° 0 mm 2 m/S 747 mmHg 71%
    19:00 +16°C° 0 mm 2 m/S 747 mmHg 76%
    20:00 +15°C° 0 mm 1 m/S 747 mmHg 78%
    21:00 +15°C° 0 mm 1 m/S 747 mmHg 80%
    22:00 +14°C° 0 mm 1 m/S 747 mmHg 81%
    23:00 +14°C° 0 mm 1 m/S 747 mmHg 82%

    26 Oktober, Samstag

    Zeit Temperatur Niederschläge Wind Luftdruck Luftfeuchtigkeit
    00:00 +13°C° 0 mm 0 m/S 747 mmHg 83%
    01:00 +12°C° 0 mm 0 m/S 747 mmHg 84%
    02:00 +12°C° 0 mm 0 m/S 746 mmHg 85%
    03:00 +12°C° 0 mm 0 m/S 746 mmHg 85%
    04:00 +12°C° 0 mm 1 m/S 746 mmHg 86%
    05:00 +12°C° 0 mm 1 m/S 746 mmHg 87%
    06:00 +12°C° 0 mm 1 m/S 746 mmHg 88%
    07:00 +12°C° 0 mm 1 m/S 746 mmHg 89%
    08:00 +13°C° 0 mm 1 m/S 746 mmHg 81%
    09:00 +15°C° 0 mm 1 m/S 746 mmHg 73%
    10:00 +17°C° 0 mm 2 m/S 747 mmHg 66%
    11:00 +19°C° 0 mm 2 m/S 746 mmHg 60%
    12:00 +20°C° 0 mm 2 m/S 746 mmHg 54%
    13:00 +21°C° 0 mm 2 m/S 746 mmHg 49%
    14:00 +22°C° 0 mm 1 m/S 745 mmHg 51%
    15:00 +21°C° 0 mm 1 m/S 745 mmHg 53%
    16:00 +20°C° 0 mm 1 m/S 744 mmHg 55%
    17:00 +19°C° 0 mm 1 m/S 745 mmHg 60%
    18:00 +18°C° 0 mm 1 m/S 745 mmHg 64%
    19:00 +16°C° 0 mm 1 m/S 745 mmHg 69%
    20:00 +15°C° 0 mm 1 m/S 745 mmHg 71%
    21:00 +15°C° 0 mm 1 m/S 745 mmHg 73%
    22:00 +14°C° 0 mm 1 m/S 745 mmHg 76%
    23:00 +14°C° 0 mm 1 m/S 745 mmHg 77%

    27 Oktober, Sonntag

    Zeit Temperatur Niederschläge Wind Luftdruck Luftfeuchtigkeit
    00:00 +13°C° 0 mm 0 m/S 745 mmHg 79%
    01:00 +12°C° 0 mm 0 m/S 745 mmHg 80%
    02:00 +12°C° 0 mm 0 m/S 745 mmHg 81%
    03:00 +12°C° 0 mm 0 m/S 745 mmHg 82%
    04:00 +11°C° 0 mm 0 m/S 745 mmHg 83%
    05:00 +11°C° 0 mm 0 m/S 745 mmHg 83%
    06:00 +12°C° 0 mm 1 m/S 745 mmHg 84%
    07:00 +12°C° 0 mm 1 m/S 744 mmHg 85%
    08:00 +14°C° 0 mm 1 m/S 745 mmHg 77%
    09:00 +15°C° 0 mm 1 m/S 745 mmHg 69%
    10:00 +18°C° 0 mm 1 m/S 745 mmHg 62%
    11:00 +19°C° 0 mm 1 m/S 744 mmHg 57%
    12:00 +21°C° 0 mm 1 m/S 744 mmHg 53%
    13:00 +22°C° 0 mm 1 m/S 743 mmHg 49%
    14:00 +21°C° 0 mm 1 m/S 743 mmHg 52%
    15:00 +20°C° 0 mm 1 m/S 743 mmHg 54%
    16:00 +20°C° 0 mm 1 m/S 743 mmHg 57%
    17:00 +19°C° 0 mm 1 m/S 743 mmHg 61%
    18:00 +16°C° 0 mm 0 m/S 743 mmHg 65%
    19:00 +14°C° 0 mm 0 m/S 743 mmHg 69%
    20:00 +14°C° 0 mm 0 m/S 743 mmHg 71%
    21:00 +15°C° 0 mm 1 m/S 743 mmHg 72%
    22:00 +14°C° 0 mm 1 m/S 743 mmHg 73%
    23:00 +14°C° 0 mm 1 m/S 743 mmHg 73%

    28 Oktober, Montag

    Zeit Temperatur Niederschläge Wind Luftdruck Luftfeuchtigkeit
    00:00 +14°C° 0 mm 2 m/S 743 mmHg 74%
    01:00 +14°C° 0 mm 2 m/S 743 mmHg 74%
    02:00 +13°C° 0 mm 3 m/S 743 mmHg 74%
    03:00 +13°C° 0 mm 3 m/S 743 mmHg 74%
    04:00 +13°C° 0 mm 4 m/S 743 mmHg 75%
    05:00 +13°C° 0 mm 3 m/S 743 mmHg 75%
    06:00 +13°C° 0 mm 3 m/S 743 mmHg 75%
    07:00 +13°C° 0 mm 3 m/S 743 mmHg 75%
    08:00 +13°C° 0.1 mm 3 m/S 744 mmHg 74%
    09:00 +12°C° 0.1 mm 4 m/S 744 mmHg 72%
    10:00 +12°C° 0.1 mm 4 m/S 744 mmHg 71%
    11:00 +11°C° 0.1 mm 4 m/S 744 mmHg 69%
    12:00 +11°C° 0.1 mm 4 m/S 744 mmHg 68%
    13:00 +10°C° 0.1 mm 4 m/S 744 mmHg 67%
    14:00 +10°C° 0 mm 4 m/S 744 mmHg 65%
    15:00 +10°C° 0 mm 3 m/S 744 mmHg 62%
    16:00 +9°C° 0 mm 3 m/S 744 mmHg 60%
    17:00 +9°C° 0 mm 3 m/S 744 mmHg 59%
    18:00 +10°C° 0 mm 3 m/S 744 mmHg 58%
    19:00 +10°C° 0 mm 3 m/S 745 mmHg 57%
    20:00 +9°C° 0 mm 3 m/S 745 mmHg 58%
    21:00 +9°C° 0 mm 3 m/S 745 mmHg 59%
    22:00 +9°C° 0 mm 3 m/S 746 mmHg 60%
    23:00 +8°C° 0 mm 3 m/S 746 mmHg 60%

    29 Oktober, Dienstag

    Zeit Temperatur Niederschläge Wind Luftdruck Luftfeuchtigkeit
    00:00 +8°C° 0 mm 3 m/S 746 mmHg 61%
    01:00 +8°C° 0 mm 3 m/S 746 mmHg 61%
    02:00 +7°C° 0 mm 3 m/S 746 mmHg 61%
    03:00 +7°C° 0 mm 3 m/S 746 mmHg 62%
    04:00 +5°C° 0 mm 3 m/S 746 mmHg 62%
    05:00 +5°C° 0 mm 3 m/S 746 mmHg 64%
    06:00 +5°C° 0 mm 3 m/S 747 mmHg 65%
    07:00 +4°C° 0 mm 3 m/S 747 mmHg 67%
    08:00 +5°C° 0 mm 3 m/S 747 mmHg 62%
    09:00 +6°C° 0 mm 4 m/S 747 mmHg 58%
    10:00 +7°C° 0 mm 4 m/S 748 mmHg 54%
    11:00 +8°C° 0 mm 4 m/S 748 mmHg 51%
    12:00 +8°C° 0 mm 4 m/S 748 mmHg 49%
    13:00 +10°C° 0 mm 4 m/S 748 mmHg 46%
    14:00 +8°C° 0 mm 4 m/S 748 mmHg 48%
    15:00 +8°C° 0 mm 4 m/S 748 mmHg 50%
    16:00 +7°C° 0 mm 4 m/S 748 mmHg 52%
    17:00 +7°C° 0 mm 4 m/S 748 mmHg 54%
    18:00 +6°C° 0 mm 4 m/S 749 mmHg 56%
    19:00 +7°C° 0 mm 3 m/S 749 mmHg 58%
    20:00 +5°C° 0 mm 3 m/S 750 mmHg 62%
    21:00 +5°C° 0 mm 3 m/S 750 mmHg 65%
    22:00 +4°C° 0 mm 3 m/S 750 mmHg 69%
    23:00 +5°C° 0 mm 2 m/S 750 mmHg 71%
    Mehr zeigen